Flag for Israel Weather past 2 weeks in Bnei Brak, Israel

Now
82 °F

Sunny.


Feels Like: 87 °F
Forecast: 77 / 90 °F
Wind: 6 mph from West

Location: Dov Airport

Current Time: Jul 29, 2015 at 10:48:54 AM

Latest Report: Jul 29, 2015 at 9:50 AM


Visibility: 10 mi

Pressure: 29.71 "Hg

Humidity: 70%

Dew point: 72 °F

Location of Bnei BrakLocation

Historic Weather in Bnei Brak — Graph

°F

Bnei Brak temperature yesterday

Maximum temperature yesterday: 86 °F (at 2:50 PM)
Minimum temperature yesterday: 77 °F (at 5:50 AM)
Average temperature yesterday: 82 °F

Past Weeks' High & Low Weather Summary

 TemperatureHumidityPressure
High88 °F (Jul 23, 2:50 PM)89% (Jul 16, 4:50 AM)29.83 "Hg (Jul 16, 4:50 AM)
Low73 °F (Jul 17, 5:50 AM)52% (Jul 23, 2:50 PM)29.65 "Hg (Jul 20, 5:50 AM)
Average82 °F73%29.72 "Hg
* Reported Jul 14 9:50 AM — Jul 29 9:50 AM, Bnei Brak, Weather by CustomWeather, © 2015

Note: Actual official high and low records may vary slightly from our data, if they occured in-between our weather recording intervals... More about our weather records

Advertising

Bnei Brak weather history for previous 24 hours

 ConditionsComfort  
Time TempWeatherWind HumidityBarometerVisibility
9:50 AM
Wed, Jul 29
82 °FSunny.6 mph70%29.71 "Hg10 mi
8:50 AM81 °FPassing clouds.3 mph70%29.71 "HgN/A
7:50 AM79 °FPassing clouds.3 mph74%29.71 "HgN/A
6:50 AM75 °FPassing clouds.5 mph78%29.68 "HgN/A
5:50 AM75 °FPassing clouds.3 mph83%29.68 "HgN/A
10:50 PM
Tue, Jul 28
79 °FPassing clouds.3 mph79%29.71 "HgN/A
9:50 PM79 °FClear.5 mph79%29.71 "Hg10 mi
8:50 PM79 °FClear.5 mph79%29.68 "Hg10 mi
7:50 PM81 °FPassing clouds.6 mph74%29.68 "HgN/A
6:50 PM82 °FPassing clouds.8 mph70%29.68 "HgN/A
5:50 PM82 °FPassing clouds.8 mph70%29.68 "HgN/A
4:50 PM84 °FPassing clouds.8 mph66%29.68 "HgN/A
3:50 PM84 °FPassing clouds.9 mph66%29.68 "HgN/A
2:50 PM86 °FPassing clouds.9 mph62%29.68 "HgN/A
1:50 PM84 °FPassing clouds.12 mph66%29.68 "HgN/A
12:50 PM84 °FSunny.10 mph66%29.68 "Hg10 mi
11:50 AM84 °FPassing clouds.9 mph66%29.68 "HgN/A
10:50 AM84 °FPassing clouds.7 mph66%29.71 "HgN/A
Weather by CustomWeather, © 2015

See weather overviewHow to use our weather pages